Location: Moscow
(55.7500°N, 37.5830°E)
Time: 07:45:33
(UTC+03:00)

N. Korean satellite - Pass Details

Date: 23 October 2021
Orbit: 446 x 495 km, 97.3° (Epoch: 04 December)

Event Time Altitude Azimuth Distance (km) Brightness Sun altitude
Rises 18:07:13 0° 216° (SW) 2,538 10.9 -8.6°
Reaches altitude 10° 18:10:15 10° 245° (WSW) 1,677 10.7 -9.1°
Maximum altitude 18:11:59 13° 274° (W) 1,511 10.5 -9.3°
Drops below altitude 10° 18:13:43 10° 302° (WNW) 1,695 10.1 -9.6°
Sets 18:16:50 0° 332° (NNW) 2,593 10.6 -10.0°
